Savanna, IA

1:15 PM CDT on July 26, 2017 (GMT -0500)
Tri-Township

Weather History for KSFY - January, 2013

Change the Weather History Date:

Tuesday, January 1, 2013

  Actual Average (KCWI) Record (KCWI)
Temperature  
Mean Temperature 10 °F -  
Max Temperature 17 °F 28 °F 47 °F (1950)
Min Temperature 3 °F 14 °F -17 °F (1968)
Degree Days  
Heating Degree Days 55    
Moisture  
Dew Point 3 °F    
Average Humidity 69    
Maximum Humidity 84    
Minimum Humidity 54    
Precipitation  
Precipitation 0.00 in - - ()
Sea Level Pressure  
Sea Level Pressure 30.22 in    
Wind  
Wind Speed 5 mph (NW)    
Max Wind Speed 8 mph    
Max Gust Speed -    
Visibility 10 miles    
Events      
Averages and records for this station are not official NWS values.
T = Trace of Precipitation, MM = Missing Value Source: NWS Daily Summary

Daily Weather History Graph

Daily Weather History Graph

Search for Another Location

Airport or City:

Trip Planner

Search our weather history database for the weather conditions in past years. The results will help you decide how hot, cold, wet, or windy it might be!

Date:

Astronomy

Jan. 01, 2013 Rise Set
Actual Time 7:28 AM CST 4:39 PM CST
Civil Twilight 6:57 AM CST 5:11 PM CST
Nautical Twilight 6:22 AM CST 5:46 PM CST
Astronomical Twilight 5:48 AM CST 6:20 PM CST
Moon 9:15 PM CST (1/1) 9:36 AM CST (1/1)
Length of Visible Light 10h 14m
Length of Day
9h 11m
Waning Gibbous, 83% of the Moon is Illuminated
Jan 1
Waning Gibbous
Jan 4
Last Quarter
Jan 11
New
Jan 18
First Quarter
Jan 26
Full

Hourly Weather History & Observations

Time (CST) Temp. Windchill Dew Point Humidity Pressure Visibility Wind Dir Wind Speed Gust Speed Precip Events Conditions
12:15 AM 16.7 °F 7.2 °F 8.6 °F 70% 30.18 in 10.0 mi North 6.9 mph - N/A   Overcast
12:35 AM 16.5 °F 6.0 °F 7.9 °F 69% 30.18 in 10.0 mi North 8.1 mph - N/A   Overcast
12:55 AM 15.8 °F 6.1 °F 7.7 °F 70% 30.18 in 10.0 mi NNW 6.9 mph - N/A   Mostly Cloudy
1:15 AM 15.3 °F 7.9 °F 7.3 °F 71% 30.18 in 10.0 mi North 4.6 mph - N/A   Mostly Cloudy
1:35 AM 14.0 °F 6.5 °F 6.6 °F 72% 30.18 in 10.0 mi NNW 4.6 mph - N/A   Scattered Clouds
1:55 AM 13.5 °F 4.4 °F 6.1 °F 72% 30.19 in 10.0 mi North 5.8 mph - N/A   Scattered Clouds
2:15 AM 12.9 °F 3.8 °F 5.9 °F 74% 30.19 in 10.0 mi North 5.8 mph - N/A   Scattered Clouds
2:35 AM 12.7 °F 3.6 °F 5.4 °F 72% 30.20 in 10.0 mi North 5.8 mph - N/A   Clear
2:55 AM 12.0 °F 4.1 °F 4.6 °F 72% 30.20 in 10.0 mi North 4.6 mph - N/A   Clear
3:15 AM 11.3 °F 1.9 °F 4.1 °F 73% 30.21 in 10.0 mi North 5.8 mph - N/A   Clear
3:35 AM 10.9 °F 2.9 °F 3.7 °F 73% 30.21 in 10.0 mi NNW 4.6 mph - N/A   Clear
3:55 AM 10.6 °F 4.3 °F 3.7 °F 74% 30.23 in 10.0 mi NW 3.5 mph - N/A   Clear
4:15 AM 10.0 °F 0.4 °F 3.2 °F 74% 30.21 in 10.0 mi NNW 5.8 mph - N/A   Clear
4:35 AM 9.5 °F 1.2 °F 2.8 °F 74% 30.21 in 10.0 mi NNW 4.6 mph - N/A   Clear
4:55 AM 9.0 °F 2.4 °F 2.5 °F 75% 30.22 in 10.0 mi NW 3.5 mph - N/A   Clear
5:15 AM 8.6 °F 0.1 °F 2.3 °F 76% 30.23 in 10.0 mi NNW 4.6 mph - N/A   Clear
5:35 AM 8.1 °F -3.2 °F 1.8 °F 75% 30.23 in 10.0 mi NNW 6.9 mph - N/A   Clear
6:15 AM 8.2 °F 1.6 °F 2.3 °F 77% 30.25 in 10.0 mi NNW 3.5 mph - N/A   Clear
6:35 AM 8.1 °F - 2.3 °F 77% 30.24 in 10.0 mi Calm Calm - N/A   Clear
6:55 AM 6.3 °F -2.6 °F 1.2 °F 80% 30.24 in 10.0 mi North 4.6 mph - N/A   Clear
7:15 AM 5.4 °F -5.2 °F 0.5 °F 80% 30.25 in 10.0 mi North 5.8 mph - N/A   Clear
7:35 AM 5.5 °F -3.4 °F 0.5 °F 80% 30.24 in 10.0 mi North 4.6 mph - N/A   Clear
7:55 AM 5.0 °F -4.1 °F 0.1 °F 80% 30.24 in 10.0 mi North 4.6 mph - N/A   Clear
8:15 AM 6.1 °F -2.8 °F 0.5 °F 78% 30.24 in 10.0 mi North 4.6 mph - N/A   Clear
8:35 AM 7.0 °F -3.3 °F 0.5 °F 75% 30.25 in 10.0 mi NNW 5.8 mph - N/A   Clear
8:55 AM 7.9 °F -3.5 °F 0.9 °F 73% 30.24 in 10.0 mi NNW 6.9 mph - N/A   Clear
9:15 AM 8.6 °F -3.7 °F 1.4 °F 73% 30.24 in 10.0 mi NNW 8.1 mph - N/A   Clear
9:35 AM 10.0 °F -0.9 °F 1.9 °F 70% 30.25 in 10.0 mi NNW 6.9 mph - N/A   Clear
9:55 AM 11.1 °F 1.7 °F 2.1 °F 67% 30.26 in 10.0 mi North 5.8 mph - N/A   Clear
10:15 AM 12.0 °F 2.7 °F 2.5 °F 66% 30.27 in 10.0 mi North 5.8 mph - N/A   Clear
10:35 AM 13.3 °F 5.6 °F 2.8 °F 63% 30.28 in 10.0 mi North 4.6 mph - N/A   Clear
10:55 AM 14.2 °F - 3.0 °F 61% 30.27 in 10.0 mi Calm Calm - N/A   Clear
11:15 AM 14.4 °F - 4.1 °F 64% 30.26 in 10.0 mi Calm Calm - N/A   Clear
11:35 AM 14.7 °F - 3.9 °F 62% 30.26 in 10.0 mi Calm Calm - N/A   Clear
11:55 AM 15.3 °F 9.6 °F 4.3 °F 62% 30.25 in 10.0 mi SW 3.5 mph - N/A   Clear
12:15 PM 15.8 °F 10.2 °F 4.5 °F 61% 30.25 in 10.0 mi West 3.5 mph - N/A   Clear
12:35 PM 16.3 °F 7.8 °F 4.8 °F 61% 30.25 in 10.0 mi WSW 5.8 mph - N/A   Clear
12:55 PM 16.0 °F 6.3 °F 4.3 °F 60% 30.24 in 10.0 mi WSW 6.9 mph - N/A   Clear
1:15 PM 16.0 °F 7.4 °F 4.8 °F 61% 30.24 in 10.0 mi West 5.8 mph - N/A   Clear
1:35 PM 16.2 °F 9.0 °F 4.1 °F 59% 30.22 in 10.0 mi West 4.6 mph - N/A   Clear
1:55 PM 16.7 °F 9.6 °F 5.0 °F 60% 30.21 in 10.0 mi West 4.6 mph - N/A   Clear
2:15 PM 16.7 °F 8.3 °F 4.3 °F 58% 30.22 in 10.0 mi West 5.8 mph - N/A   Clear
2:35 PM 16.9 °F 7.4 °F 4.1 °F 57% 30.21 in 10.0 mi West 6.9 mph - N/A   Clear
2:55 PM 17.1 °F 8.7 °F 4.1 °F 57% 30.21 in 10.0 mi West 5.8 mph - N/A   Clear
3:15 PM 17.2 °F 8.9 °F 4.1 °F 56% 30.21 in 10.0 mi West 5.8 mph - N/A   Clear
3:35 PM 17.1 °F 6.6 °F 3.0 °F 54% 30.21 in 10.0 mi West 8.1 mph - N/A   Clear
3:55 PM 16.7 °F 6.2 °F 4.1 °F 58% 30.21 in 10.0 mi West 8.1 mph - N/A   Clear
4:15 PM 16.0 °F 7.4 °F 2.7 °F 56% 30.21 in 10.0 mi West 5.8 mph - N/A   Clear
4:35 PM 15.6 °F 5.9 °F 3.2 °F 58% 30.21 in 10.0 mi WNW 6.9 mph - N/A   Clear
4:55 PM 14.9 °F 5.0 °F 3.9 °F 62% 30.21 in 10.0 mi WNW 6.9 mph - N/A   Clear
5:15 PM 14.7 °F 4.8 °F 4.3 °F 63% 30.21 in 10.0 mi WNW 6.9 mph - N/A   Clear
5:35 PM 14.0 °F 3.9 °F 3.2 °F 62% 30.22 in 10.0 mi WNW 6.9 mph - N/A   Clear
5:55 PM 13.8 °F 6.2 °F 3.2 °F 63% 30.22 in 10.0 mi West 4.6 mph - N/A   Clear
6:15 PM 13.5 °F 3.3 °F 3.2 °F 64% 30.21 in 10.0 mi WNW 6.9 mph - N/A   Clear
6:35 PM 13.1 °F 2.8 °F 3.2 °F 65% 30.21 in 10.0 mi WNW 6.9 mph - N/A   Clear
6:55 PM 13.1 °F 5.4 °F 3.0 °F 64% 30.22 in 10.0 mi West 4.6 mph - N/A   Clear
7:15 PM 12.9 °F - 3.6 °F 66% 30.22 in 10.0 mi Calm Calm - N/A   Clear
7:35 PM 12.2 °F - 3.2 °F 67% 30.22 in 10.0 mi Calm Calm - N/A   Clear
7:55 PM 12.0 °F 5.9 °F 3.2 °F 68% 30.22 in 10.0 mi West 3.5 mph - N/A   Clear
8:15 PM 11.8 °F - 3.0 °F 68% 30.21 in 10.0 mi Calm Calm - N/A   Clear
8:35 PM 11.3 °F - 3.2 °F 70% 30.21 in 10.0 mi Calm Calm - N/A   Clear
8:55 PM 11.3 °F - 3.2 °F 70% 30.21 in 10.0 mi Calm Calm - N/A   Clear
9:15 PM 7.2 °F - 1.9 °F 79% 30.21 in 10.0 mi Calm Calm - N/A   Clear
9:35 PM 10.9 °F - 3.2 °F 71% 30.21 in 10.0 mi Calm Calm - N/A   Clear
9:55 PM 9.7 °F - 2.3 °F 72% 30.21 in 10.0 mi Calm Calm - N/A   Clear
10:15 PM 5.2 °F -1.9 °F 0.1 °F 80% 30.20 in 10.0 mi SSE 3.5 mph - N/A   Clear
10:35 PM 3.7 °F - -0.0 °F 84% 30.21 in 10.0 mi Calm Calm - N/A   Clear
10:55 PM 3.7 °F - -0.6 °F 82% 30.21 in 10.0 mi Calm Calm - N/A   Clear
11:15 PM 4.3 °F - 0.3 °F 84% 30.21 in 10.0 mi Calm Calm - N/A   Clear
11:35 PM 3.9 °F -5.3 °F -0.6 °F 82% 30.20 in 10.0 mi South 4.6 mph - N/A   Clear
11:55 PM 3.7 °F -5.5 °F -0.4 °F 83% 30.19 in 10.0 mi South 4.6 mph - N/A   Scattered Clouds